[[{"header":{"parameterUnit":"m.s-1","parameterCategory":1,"la1":30.2991,"la2":30.254,"lo1":-89.0895,"lo2":-89.0444,"dy":0.0017,"dx":0.0017,"nx":28,"ny":28,"refTime":"2023-09-12T21:00:00:Z","depth":0,"parameterNumber":2,"parameterNumberName":"U-component_of_WINDS"},"data":[0,0,0,0,0,0,0,0,0,0,0,0,0,0,0,0,0,0,0,0,0,0,0,0,0,0,0,0,0,0,0,0,0,0,0,0,0,0,0,0,0,0,0,0,0,0,0,0,0,0,0,0,0,0,0,0,0,0,2.5732,2.5732,0,2.5799,2.58,2.5801,2.5733,2.573,2.5728,2.5725,2.5795,2.5799,2.5803,0,0,0,0,0,0,0,0,0,0,0,0,0,2.5545,2.5549,2.5732,2.5732,2.5733,2.5799,2.58,2.5801,2.5734,2.573,2.5727,2.5724,2.5794,2.5799,2.5804,0,0,0,0,0,0,0,0,0,0,0,0,0,2.5621,2.555,2.5731,2.5708,2.5706,2.5799,2.58,2.5801,2.5734,2.573,2.5726,2.5723,2.5792,2.5798,2.5805,2.5924,0,0,2.5824,2.5827,0,0,0,0,0,0,0,0,2.5617,2.5628,2.571,2.5709,2.5708,2.5754,2.576,2.5842,2.5735,2.5724,2.5725,2.5721,2.5784,2.5791,2.5813,2.5927,2.593,2.5825,2.5829,2.5832,2.5834,0,0,0,0,0,0,0,2.5612,2.5625,2.5758,2.5712,2.571,2.5694,2.57,2.5775,2.5776,2.5724,2.572,2.5728,2.5783,2.5807,2.5814,2.5931,2.5825,2.5831,2.5835,2.5837,2.6148,2.6152,0,0,0,0,0,0,2.5609,2.5621,2.5756,2.576,2.5652,2.57,2.5707,2.5743,2.5775,2.5775,2.5732,2.5725,2.5797,2.5806,2.5816,2.5958,2.5832,2.5838,2.5841,2.6143,2.6149,2.6153,0,0,0,0,0,0,2.5605,2.5622,2.5753,2.5689,2.5705,2.5708,2.5748,2.5746,2.577,2.578,2.578,2.5756,2.5795,2.5807,2.5898,2.596,2.5841,2.5847,2.6138,2.6145,2.6151,2.6244,0,0,0,0,0,0,2.56,2.5621,2.5666,2.5691,2.5708,2.5834,2.5752,2.5751,2.5781,2.5773,2.5803,2.5804,2.5792,2.5888,2.5904,2.5967,2.5852,2.6133,2.6141,2.6149,2.6235,2.6253,2.6268,0,0,0,0,0,2.5594,2.569,2.5669,2.5685,2.5765,2.5838,2.5848,2.5833,2.5786,2.5832,2.5839,2.5803,2.595,2.5898,2.5915,2.5981,2.6129,2.6139,2.6148,2.6228,2.625,2.6268,0,0,0,0,0,0,2.5672,2.5692,2.5669,2.5776,2.5806,2.5826,2.5884,2.5856,2.59,2.589,2.587,2.5877,2.5974,2.5986,2.5928,2.6098,2.6032,2.6046,2.6087,2.6107,2.6123,2.6118,2.5857,0,0,0,0,0,2.5702,2.5759,2.5774,2.5867,2.5883,2.5881,2.5912,2.5898,2.5928,2.594,2.5953,2.5984,2.6037,2.6073,2.6122,2.6237,2.6242,2.629,2.6306,2.632,2.6332,2.6394,2.6415,2.6186,2.6186,2.6185,0,0,2.5764,2.5782,2.582,2.5883,2.5904,2.5964,2.5892,2.5958,2.6003,2.595,2.6037,2.6048,2.608,2.6184,2.623,2.6197,2.6396,2.6332,2.6343,2.6348,2.6406,2.6428,2.6447,2.6192,2.6191,2.619,0,0,2.5909,2.5928,2.6007,2.603,2.6063,2.6061,2.608,2.6105,2.611,2.6197,2.6159,2.6211,2.6303,2.6328,2.6353,2.6507,2.6476,2.6523,2.6609,2.6669,2.6687,2.6703,2.6758,2.6779,2.6536,2.6536,2.6536,0,2.5982,2.607,2.6052,2.6121,2.615,2.6105,2.6186,2.6209,2.6257,2.6278,2.624,2.6355,2.6374,2.6482,2.652,2.6541,2.6563,2.652,2.6686,2.6702,2.6716,2.6769,2.679,2.6541,2.6541,2.654,2.654,0,2.6159,2.6221,2.6282,2.6329,2.6364,2.6439,2.6432,2.647,2.6453,2.6455,2.6544,2.6565,2.6618,2.6643,2.6627,2.675,2.6728,2.6689,2.6622,2.6744,2.6793,2.6813,2.655,2.6548,2.6546,2.6544,0,0,2.6356,2.6391,2.6414,2.6435,2.6468,2.6515,2.6588,2.664,2.6673,2.6707,2.6768,2.6847,2.6811,2.6839,2.6825,2.6878,2.6999,2.6832,2.6833,2.6863,2.7137,2.7167,2.719,2.6978,2.6982,2.6985,2.7134,0,2.6501,2.6627,2.6612,2.6733,2.679,2.6748,2.6811,2.6838,2.6842,2.6892,2.6896,2.6952,2.69,2.6916,2.6967,2.6974,2.7054,2.6963,2.7035,2.7038,2.7029,2.7216,2.7248,2.7387,2.7153,2.7156,2.7158,0,2.6688,2.6729,2.6855,2.6879,2.6903,2.696,2.7006,2.7054,2.7084,2.7083,2.7114,2.7091,2.7164,2.7096,2.7196,2.7135,2.7163,2.7171,2.7176,2.7183,2.7106,2.7228,2.7431,2.7453,2.7188,2.7186,2.7184,0,2.682,2.6906,2.6993,2.7012,2.7042,2.7083,2.7098,2.7124,2.7156,2.7196,2.7217,2.7265,2.7292,2.7331,2.7321,2.7272,2.7425,2.7355,2.7426,2.7427,2.7461,2.7459,2.7672,2.7479,2.7478,2.7478,2.7477,0,2.6984,2.7063,2.7052,2.7106,2.7193,2.7175,2.7262,2.7271,2.7295,2.735,2.7316,2.7368,2.7352,2.7403,2.7396,2.7481,2.7494,2.7495,2.7493,2.7499,2.7499,2.7518,2.7508,2.7483,2.7482,2.7481,2.748,0,2.7146,2.7142,2.7234,2.7255,2.7262,2.7325,2.7343,2.7394,2.7394,2.7464,2.7479,2.7481,2.754,2.7534,2.76,2.7595,2.7701,2.7686,2.7691,2.7688,2.776,2.7754,2.7994,2.8024,2.781,2.7812,2.7814,0,2.7252,2.7312,2.7339,2.7373,2.739,2.7446,2.7478,2.7463,2.7498,2.7536,2.7582,2.7638,2.7682,2.7778,2.7785,2.7835,2.7822,2.7903,2.783,2.7834,2.7824,2.7821,2.7827,2.7918,2.792,2.7922,2.7924,0,2.7441,2.7435,2.7483,2.7531,2.757,2.7607,2.764,2.767,2.7658,2.7699,2.7758,2.7792,2.786,2.7915,2.7963,2.7978,2.795,2.7946,2.7966,2.7973,2.7974,2.7975,2.7731,2.7941,2.7939,2.7938,2.7937,2.7936,2.7578,2.763,2.7657,2.7711,2.7734,2.7766,2.7814,2.7821,2.787,2.7924,2.7911,2.7979,2.8007,2.8068,2.8088,2.814,2.8111,2.8139,2.8146,2.8154,2.8162,2.7965,2.8149,2.8148,2.8148,2.8148,2.8147,0,2.7766,2.7781,2.7831,2.7878,2.7921,2.7889,2.7924,2.7963,2.8022,2.8051,2.8094,2.8163,2.8217,2.8228,2.828,2.832,2.8308,2.8334,2.8331,2.8335,2.8185,2.8164,2.8343,2.8343,2.8342,2.8342,2.8342,2.8342,2.7868,2.7953,2.7951,2.8048,2.8062,2.8127,2.815,2.8179,2.8202,2.828,2.8324,2.8331,2.8353,2.8406,2.8454,2.8456,2.8477,2.8508,2.8505,2.8365,2.8346,2.8327,2.8307,2.8513,2.8513,2.8651,2.8652,2.8653]},{"header":{"parameterUnit":"m.s-1","parameterCategory":1,"la1":30.2991,"la2":30.254,"lo1":-89.0895,"lo2":-89.0444,"dy":0.0017,"dx":0.0017,"nx":28,"ny":28,"refTime":"2023-09-12T21:00:00:Z","depth":0,"parameterNumber":3,"parameterNumberName":"V-component_of_WINDS"},"data":[0,0,0,0,0,0,0,0,0,0,0,0,0,0,0,0,0,0,0,0,0,0,0,0,0,0,0,0,0,0,0,0,0,0,0,0,0,0,0,0,0,0,0,0,0,0,0,0,0,0,0,0,0,0,0,0,0,0,-1.1402,-1.1402,0,-1.1449,-1.145,-1.145,-1.1448,-1.1448,-1.1447,-1.1446,-1.1493,-1.1495,-1.1497,0,0,0,0,0,0,0,0,0,0,0,0,0,-1.1309,-1.1311,-1.1402,-1.1402,-1.1403,-1.1449,-1.145,-1.145,-1.1448,-1.1448,-1.1447,-1.1446,-1.1493,-1.1495,-1.1497,0,0,0,0,0,0,0,0,0,0,0,0,0,-1.1352,-1.1311,-1.1402,-1.1408,-1.1409,-1.1449,-1.145,-1.1451,-1.1449,-1.1448,-1.1447,-1.1446,-1.1492,-1.1495,-1.1498,-1.1535,0,0,-1.1506,-1.1507,0,0,0,0,0,0,0,0,-1.135,-1.1355,-1.1406,-1.1407,-1.1408,-1.1442,-1.1434,-1.1479,-1.1449,-1.1433,-1.1446,-1.1445,-1.1477,-1.1481,-1.1492,-1.1537,-1.1539,-1.1506,-1.1508,-1.1509,-1.151,0,0,0,0,0,0,0,-1.1347,-1.1353,-1.142,-1.1407,-1.1408,-1.1408,-1.1413,-1.1443,-1.146,-1.1435,-1.1435,-1.144,-1.1477,-1.1489,-1.1493,-1.154,-1.1506,-1.1509,-1.151,-1.1512,-1.1617,-1.1618,0,0,0,0,0,0,-1.1342,-1.1351,-1.1419,-1.1422,-1.1376,-1.141,-1.1416,-1.1432,-1.146,-1.1463,-1.1441,-1.144,-1.1485,-1.149,-1.1495,-1.154,-1.1509,-1.1512,-1.1513,-1.1616,-1.1618,-1.1619,0,0,0,0,0,0,-1.1341,-1.1349,-1.1417,-1.1386,-1.1395,-1.1413,-1.1431,-1.1434,-1.1445,-1.1465,-1.1468,-1.145,-1.1484,-1.1491,-1.1525,-1.1541,-1.1513,-1.1516,-1.1615,-1.1617,-1.1618,-1.1631,0,0,0,0,0,0,-1.1338,-1.1348,-1.1362,-1.1387,-1.1397,-1.1447,-1.1432,-1.1435,-1.145,-1.1449,-1.1474,-1.1477,-1.1484,-1.1521,-1.1528,-1.1545,-1.1518,-1.1614,-1.1616,-1.1618,-1.1629,-1.1633,-1.1636,0,0,0,0,0,-1.1335,-1.1364,-1.1363,-1.1371,-1.1415,-1.1448,-1.1453,-1.1461,-1.1452,-1.1466,-1.1479,-1.1476,-1.1539,-1.1524,-1.1532,-1.155,-1.1612,-1.1615,-1.1618,-1.1627,-1.1632,-1.1636,0,0,0,0,0,0,-1.134,-1.1367,-1.1367,-1.1405,-1.1424,-1.1447,-1.1466,-1.1466,-1.1488,-1.1486,-1.1495,-1.15,-1.1535,-1.1546,-1.1529,-1.1588,-1.1574,-1.1579,-1.1579,-1.1583,-1.1587,-1.1583,-1.152,0,0,0,0,0,-1.1346,-1.137,-1.1392,-1.1424,-1.1434,-1.1448,-1.1463,-1.1467,-1.1487,-1.1495,-1.151,-1.153,-1.1554,-1.1569,-1.1592,-1.1631,-1.1636,-1.1647,-1.1651,-1.1653,-1.1657,-1.1678,-1.1683,-1.1627,-1.1627,-1.1627,0,0,-1.1358,-1.1375,-1.139,-1.1425,-1.1441,-1.1466,-1.1455,-1.1482,-1.15,-1.1499,-1.1532,-1.1544,-1.1566,-1.1603,-1.162,-1.1613,-1.1673,-1.1657,-1.1659,-1.1661,-1.1681,-1.1686,-1.1691,-1.1629,-1.1629,-1.1628,0,0,-1.1392,-1.1408,-1.1436,-1.1452,-1.1476,-1.1486,-1.1492,-1.1516,-1.1524,-1.1557,-1.1557,-1.1579,-1.1621,-1.1636,-1.165,-1.1691,-1.1689,-1.1698,-1.1716,-1.1737,-1.1741,-1.1745,-1.1759,-1.1764,-1.1702,-1.1702,-1.1702,0,-1.1404,-1.1442,-1.145,-1.1477,-1.1493,-1.1494,-1.1522,-1.1537,-1.1567,-1.1577,-1.157,-1.1622,-1.1637,-1.1677,-1.1687,-1.1698,-1.1706,-1.1695,-1.174,-1.1744,-1.1748,-1.1761,-1.1767,-1.1703,-1.1703,-1.1702,-1.1702,0,-1.1455,-1.1481,-1.1501,-1.153,-1.1548,-1.1575,-1.1588,-1.1604,-1.1608,-1.1618,-1.1652,-1.167,-1.1697,-1.1707,-1.171,-1.1748,-1.1743,-1.1738,-1.1724,-1.1754,-1.1767,-1.1772,-1.1704,-1.1704,-1.1703,-1.1703,0,0,-1.1493,-1.1528,-1.1535,-1.1548,-1.1575,-1.1595,-1.1623,-1.165,-1.1664,-1.1685,-1.1708,-1.1743,-1.1738,-1.1753,-1.1758,-1.1776,-1.1808,-1.1769,-1.1769,-1.1775,-1.185,-1.1854,-1.186,-1.1807,-1.1808,-1.1809,-1.1848,0,-1.153,-1.1579,-1.1588,-1.1631,-1.1655,-1.1657,-1.1681,-1.17,-1.171,-1.1732,-1.1743,-1.1768,-1.176,-1.1769,-1.1787,-1.18,-1.1823,-1.1797,-1.1828,-1.1829,-1.1822,-1.1867,-1.187,-1.1906,-1.1853,-1.1854,-1.1855,0,-1.158,-1.1602,-1.1648,-1.1671,-1.1682,-1.1703,-1.1729,-1.175,-1.1771,-1.1778,-1.1795,-1.1798,-1.1826,-1.1812,-1.1851,-1.1834,-1.1847,-1.1855,-1.1857,-1.186,-1.1843,-1.187,-1.1918,-1.1923,-1.1863,-1.1862,-1.1862,0,-1.1603,-1.1645,-1.1678,-1.1689,-1.1718,-1.1733,-1.1745,-1.1765,-1.1781,-1.1803,-1.1814,-1.1839,-1.1852,-1.1871,-1.1881,-1.187,-1.192,-1.1906,-1.1925,-1.1925,-1.1935,-1.1934,-1.1986,-1.1944,-1.1944,-1.1944,-1.1944,0,-1.1643,-1.1671,-1.1688,-1.1708,-1.1739,-1.1749,-1.178,-1.1792,-1.181,-1.1832,-1.1835,-1.1856,-1.1868,-1.189,-1.1898,-1.1929,-1.1935,-1.1941,-1.1942,-1.194,-1.194,-1.1949,-1.1946,-1.1946,-1.1945,-1.1945,-1.1945,0,-1.1674,-1.1687,-1.1723,-1.1747,-1.1754,-1.1776,-1.1796,-1.1816,-1.1826,-1.1854,-1.1861,-1.1878,-1.1905,-1.1916,-1.1949,-1.1954,-1.199,-1.199,-1.1983,-1.1983,-1.2002,-1.2,-1.206,-1.2069,-1.2022,-1.2022,-1.2023,0,-1.1699,-1.172,-1.1747,-1.1762,-1.1775,-1.18,-1.1816,-1.1827,-1.1843,-1.187,-1.1886,-1.1912,-1.1934,-1.1977,-1.1991,-1.2016,-1.2017,-1.2036,-1.2021,-1.2018,-1.2017,-1.2015,-1.2017,-1.2039,-1.204,-1.204,-1.204,0,-1.1741,-1.1747,-1.177,-1.1796,-1.1815,-1.1836,-1.1856,-1.1868,-1.1882,-1.19,-1.1928,-1.1945,-1.1979,-1.2005,-1.2031,-1.2044,-1.2044,-1.2045,-1.2051,-1.2049,-1.2044,-1.2047,-1.199,-1.2044,-1.2043,-1.2043,-1.2043,-1.2043,-1.177,-1.1789,-1.1811,-1.1837,-1.1853,-1.1872,-1.1892,-1.1905,-1.1928,-1.1956,-1.1961,-1.199,-1.2011,-1.2046,-1.206,-1.2083,-1.2078,-1.2086,-1.2088,-1.209,-1.2091,-1.204,-1.2088,-1.2088,-1.2087,-1.2087,-1.2087,0,-1.1812,-1.1826,-1.185,-1.1879,-1.1899,-1.1898,-1.1921,-1.1938,-1.1963,-1.1983,-1.2005,-1.2036,-1.2062,-1.2079,-1.2105,-1.212,-1.2121,-1.2127,-1.2125,-1.2128,-1.2094,-1.2086,-1.2125,-1.2125,-1.2125,-1.2125,-1.2125,-1.2125,-1.1837,-1.1869,-1.1877,-1.1917,-1.1931,-1.196,-1.1973,-1.199,-1.2006,-1.2041,-1.2063,-1.2074,-1.2093,-1.212,-1.2144,-1.2148,-1.2157,-1.2163,-1.2167,-1.2135,-1.2131,-1.2127,-1.212,-1.2165,-1.2165,-1.2199,-1.22,-1.22]}]]